SAS1778 EKVG-EKCH

Flight info

Callsign SAS1778
Flight time 2h 10m
Altitude 37000
Route ODEVA DCT RIXUN DCT PEPIN DCT TESPI
Aircraft A320/M-SDE3FGHIJ1RWXYZ/ALB1

Departure

Time 2026-05-08 07:15
Airport Vágar Airport (EKVG)

Arrival

Time 2026-05-08 09:25
Airport Copenhagen Kastrup Airport (EKCH)
Time Latitude Longitude Altitude Speed Heading
2026-05-08 06:44 62.06686 -7.27945 279 ft 0 kts 29°
2026-05-08 07:05 62.06683 -7.27948 279 ft 3 kts 28°
2026-05-08 07:05 62.06660 -7.27964 279 ft 4 kts 347°
2026-05-08 07:05 62.06642 -7.27938 279 ft 3 kts 288°
2026-05-08 07:06 62.06640 -7.27923 279 ft 0 kts 286°
2026-05-08 07:08 62.06646 -7.27970 279 ft 5 kts 284°
2026-05-08 07:08 62.06649 -7.28043 279 ft 5 kts 256°
2026-05-08 07:08 62.06624 -7.28082 279 ft 4 kts 192°
2026-05-08 07:08 62.06588 -7.28087 278 ft 7 kts 185°
2026-05-08 07:09 62.06543 -7.28108 279 ft 6 kts 196°
2026-05-08 07:09 62.06513 -7.28134 280 ft 3 kts 202°
2026-05-08 07:09 62.06490 -7.28143 281 ft 5 kts 173°
2026-05-08 07:09 62.06448 -7.28067 281 ft 9 kts 120°
2026-05-08 07:10 62.06419 -7.27958 283 ft 8 kts 118°
2026-05-08 07:10 62.06386 -7.27826 285 ft 11 kts 117°
2026-05-08 07:10 62.06350 -7.27680 287 ft 11 kts 118°
2026-05-08 07:10 62.06309 -7.27517 288 ft 14 kts 118°
2026-05-08 07:11 62.06256 -7.27306 287 ft 16 kts 117°
2026-05-08 07:11 62.06193 -7.27060 275 ft 18 kts 118°
2026-05-08 07:11 62.06139 -7.26834 267 ft 19 kts 117°
2026-05-08 07:11 62.06081 -7.26599 259 ft 17 kts 118°
2026-05-08 07:12 62.06029 -7.26391 251 ft 16 kts 117°
2026-05-08 07:12 62.05983 -7.26207 245 ft 14 kts 118°
2026-05-08 07:12 62.05955 -7.26096 242 ft 8 kts 118°
2026-05-08 07:12 62.05935 -7.26009 241 ft 4 kts 39°
2026-05-08 07:13 62.05942 -7.26040 241 ft 3 kts 288°
2026-05-08 07:13 62.05944 -7.26048 241 ft 0 kts 297°
2026-05-08 07:14 62.05945 -7.26052 241 ft 7 kts 297°
2026-05-08 07:14 62.06105 -7.26703 263 ft 87 kts 297°
2026-05-08 07:15 62.06481 -7.28214 284 ft 143 kts 298°
2026-05-08 07:15 62.06981 -7.30200 800 ft 150 kts 298°
2026-05-08 07:15 62.07545 -7.32029 1473 ft 150 kts 307°
2026-05-08 07:15 62.07972 -7.34137 1750 ft 167 kts 277°
2026-05-08 07:16 62.08127 -7.36757 1964 ft 190 kts 279°
2026-05-08 07:16 62.08351 -7.39724 2200 ft 215 kts 280°
2026-05-08 07:16 62.08628 -7.43026 2604 ft 235 kts 281°
2026-05-08 07:16 62.08874 -7.46517 3310 ft 242 kts 272°
2026-05-08 07:17 62.08768 -7.50123 4105 ft 246 kts 258°
2026-05-08 07:17 62.08275 -7.53615 4954 ft 247 kts 245°
2026-05-08 07:17 62.07412 -7.56769 5815 ft 247 kts 231°
2026-05-08 07:17 62.06220 -7.59412 6648 ft 249 kts 218°
2026-05-08 07:18 62.04755 -7.61390 7455 ft 251 kts 204°
2026-05-08 07:18 62.03091 -7.62559 8241 ft 254 kts 190°
2026-05-08 07:18 62.01321 -7.62815 9009 ft 257 kts 176°
2026-05-08 07:18 61.99553 -7.62129 9747 ft 261 kts 162°
2026-05-08 07:19 61.97900 -7.60509 10477 ft 264 kts 148°
2026-05-08 07:19 61.96479 -7.58018 11189 ft 267 kts 133°
2026-05-08 07:19 61.95392 -7.54796 11903 ft 271 kts 118°
2026-05-08 07:19 61.94726 -7.51036 12592 ft 274 kts 103°
2026-05-08 07:20 61.94486 -7.46988 13155 ft 283 kts 96°
2026-05-08 07:20 61.94302 -7.42648 13304 ft 306 kts 96°
2026-05-08 07:20 61.94097 -7.37971 13436 ft 328 kts 96°
2026-05-08 07:20 61.93878 -7.33036 13773 ft 341 kts 97°
2026-05-08 07:21 61.93650 -7.27978 14341 ft 346 kts 97°
2026-05-08 07:21 61.93417 -7.22877 14942 ft 349 kts 97°
2026-05-08 07:21 61.93181 -7.17722 15527 ft 352 kts 97°
2026-05-08 07:21 61.92944 -7.12524 16100 ft 355 kts 97°
2026-05-08 07:22 61.92700 -7.07278 16657 ft 359 kts 98°
2026-05-08 07:22 61.92446 -7.01996 17217 ft 362 kts 98°
2026-05-08 07:22 61.92189 -6.96664 17759 ft 365 kts 98°
2026-05-08 07:22 61.91928 -6.91282 18302 ft 368 kts 98°
2026-05-08 07:23 61.91661 -6.85853 18852 ft 371 kts 99°
2026-05-08 07:23 61.91389 -6.80379 19397 ft 375 kts 99°
2026-05-08 07:23 61.91115 -6.74933 19926 ft 378 kts 99°
2026-05-08 07:23 61.90832 -6.69366 20442 ft 381 kts 99°
2026-05-08 07:24 61.90504 -6.63695 20957 ft 383 kts 104°
2026-05-08 07:24 61.89817 -6.58274 21454 ft 381 kts 114°
2026-05-08 07:24 61.88730 -6.53159 21948 ft 381 kts 120°
2026-05-08 07:24 61.87566 -6.48183 22439 ft 383 kts 120°
2026-05-08 07:25 61.86381 -6.43108 22921 ft 385 kts 120°
2026-05-08 07:25 61.85191 -6.38013 23395 ft 387 kts 121°
2026-05-08 07:25 61.82786 -6.27707 24277 ft 393 kts 121°
2026-05-08 07:26 61.81570 -6.22516 24709 ft 395 kts 121°
2026-05-08 07:26 61.80343 -6.17296 25104 ft 398 kts 121°
2026-05-08 07:26 61.79107 -6.12050 25492 ft 401 kts 121°
2026-05-08 07:26 61.77858 -6.06763 25869 ft 403 kts 121°
2026-05-08 07:27 61.76600 -6.01442 26239 ft 406 kts 121°
2026-05-08 07:27 61.75334 -5.96087 26585 ft 409 kts 121°
2026-05-08 07:27 61.74056 -5.90704 26930 ft 411 kts 121°
2026-05-08 07:27 61.72764 -5.85299 27260 ft 414 kts 121°
2026-05-08 07:28 61.71459 -5.79866 27601 ft 417 kts 121°
2026-05-08 07:28 61.70148 -5.74402 27933 ft 419 kts 121°
2026-05-08 07:28 61.68828 -5.68910 28249 ft 421 kts 121°
2026-05-08 07:28 61.67497 -5.63388 28564 ft 424 kts 121°
2026-05-08 07:29 61.66158 -5.57841 28876 ft 426 kts 121°
2026-05-08 07:29 61.64808 -5.52264 29178 ft 429 kts 121°
2026-05-08 07:29 61.63449 -5.46663 29481 ft 431 kts 121°
2026-05-08 07:29 61.62082 -5.41031 29788 ft 433 kts 121°
2026-05-08 07:30 61.60702 -5.35377 30076 ft 436 kts 121°
2026-05-08 07:30 61.59315 -5.29716 30375 ft 438 kts 121°
2026-05-08 07:30 61.57918 -5.24018 30681 ft 439 kts 121°
2026-05-08 07:30 61.56516 -5.18319 31070 ft 439 kts 121°
2026-05-08 07:31 61.55111 -5.12636 31443 ft 439 kts 121°
2026-05-08 07:31 61.53704 -5.06959 31794 ft 439 kts 121°
2026-05-08 07:31 61.52295 -5.01278 32148 ft 439 kts 121°
2026-05-08 07:31 61.50884 -4.95601 32503 ft 440 kts 121°
2026-05-08 07:32 61.49470 -4.89926 32843 ft 440 kts 121°
2026-05-08 07:32 61.48054 -4.84252 33195 ft 440 kts 121°
2026-05-08 07:32 61.46634 -4.78578 33542 ft 440 kts 121°
2026-05-08 07:32 61.45214 -4.72911 33887 ft 440 kts 121°
2026-05-08 07:33 61.43789 -4.67242 34210 ft 441 kts 120°
2026-05-08 07:33 61.42378 -4.61653 34519 ft 441 kts 121°
2026-05-08 07:33 61.40945 -4.55991 34836 ft 441 kts 121°
2026-05-08 07:33 61.39511 -4.50338 35125 ft 441 kts 121°
2026-05-08 07:34 61.38071 -4.44696 35406 ft 441 kts 121°
2026-05-08 07:34 61.36630 -4.39069 35664 ft 441 kts 121°
2026-05-08 07:34 61.35189 -4.33424 35915 ft 441 kts 121°
2026-05-08 07:34 61.33746 -4.27771 36164 ft 442 kts 121°
2026-05-08 07:35 61.32302 -4.22128 36395 ft 442 kts 121°
2026-05-08 07:35 61.30852 -4.16486 36606 ft 443 kts 121°
2026-05-08 07:35 61.29395 -4.10835 36746 ft 443 kts 121°
2026-05-08 07:36 61.26486 -3.99604 36783 ft 439 kts 121°
2026-05-08 07:36 61.23580 -3.88494 36795 ft 437 kts 121°
2026-05-08 07:37 61.20677 -3.77430 36804 ft 436 kts 121°
2026-05-08 07:37 61.17779 -3.66378 36814 ft 436 kts 121°
2026-05-08 07:38 61.14870 -3.55377 36815 ft 436 kts 121°
2026-05-08 07:38 61.11949 -3.44386 36820 ft 436 kts 121°
2026-05-08 07:39 61.09017 -3.33403 36838 ft 436 kts 122°
2026-05-08 07:39 61.06074 -3.22436 36841 ft 436 kts 122°
2026-05-08 07:40 61.03120 -3.11485 36850 ft 437 kts 122°
2026-05-08 07:40 61.00149 -3.00572 36859 ft 436 kts 123°
2026-05-08 07:41 60.97006 -2.90003 36871 ft 435 kts 126°
2026-05-08 07:41 60.93672 -2.79647 36882 ft 434 kts 127°
2026-05-08 07:42 60.90326 -2.69328 36886 ft 434 kts 126°
2026-05-08 07:42 60.87017 -2.58976 36891 ft 433 kts 126°
2026-05-08 07:43 60.83722 -2.48619 36897 ft 433 kts 126°
2026-05-08 07:43 60.80421 -2.38284 36902 ft 433 kts 126°
2026-05-08 07:44 60.77109 -2.27983 36908 ft 433 kts 126°
2026-05-08 07:44 60.73788 -2.17727 36911 ft 432 kts 126°
2026-05-08 07:45 60.70460 -2.07506 36911 ft 432 kts 126°
2026-05-08 07:45 60.67121 -1.97303 36908 ft 432 kts 127°
2026-05-08 07:46 60.63781 -1.87122 36912 ft 432 kts 127°
2026-05-08 07:46 60.60426 -1.76936 36929 ft 433 kts 127°
2026-05-08 07:47 60.57063 -1.66762 36935 ft 434 kts 127°
2026-05-08 07:47 60.53697 -1.56608 36936 ft 433 kts 127°
2026-05-08 07:48 60.50317 -1.46473 36935 ft 433 kts 127°
2026-05-08 07:48 60.46924 -1.36364 36938 ft 434 kts 127°
2026-05-08 07:49 60.43542 -1.26350 36938 ft 433 kts 127°
2026-05-08 07:49 60.40147 -1.16297 36940 ft 432 kts 127°
2026-05-08 07:50 60.36723 -1.06212 36936 ft 432 kts 128°
2026-05-08 07:50 60.33334 -0.96279 36930 ft 432 kts 128°
2026-05-08 07:51 60.29913 -0.86298 36936 ft 432 kts 128°
2026-05-08 07:51 60.26486 -0.76337 36938 ft 433 kts 128°
2026-05-08 07:52 60.23049 -0.66391 36937 ft 433 kts 128°
2026-05-08 07:52 60.19613 -0.56496 36934 ft 432 kts 128°
2026-05-08 07:53 60.16167 -0.46601 36937 ft 432 kts 128°
2026-05-08 07:53 60.12716 -0.36716 36938 ft 432 kts 128°
2026-05-08 07:54 60.09254 -0.26852 36938 ft 432 kts 128°
2026-05-08 07:54 60.05781 -0.17024 36941 ft 432 kts 128°
2026-05-08 07:55 60.02299 -0.07198 36950 ft 433 kts 128°
2026-05-08 07:55 59.98815 0.02632 36954 ft 434 kts 127°
2026-05-08 07:56 59.95547 0.12787 36958 ft 435 kts 124°
2026-05-08 07:56 59.92429 0.23134 36959 ft 435 kts 124°
2026-05-08 07:57 59.89290 0.33426 36959 ft 434 kts 124°
2026-05-08 07:57 59.86096 0.43603 36963 ft 434 kts 125°
2026-05-08 07:58 59.82902 0.53674 36969 ft 433 kts 125°
2026-05-08 07:58 59.79690 0.63793 36971 ft 433 kts 125°
2026-05-08 07:59 59.76477 0.73899 36972 ft 433 kts 125°
2026-05-08 07:59 59.73258 0.83977 36973 ft 432 kts 125°
2026-05-08 08:00 59.70032 0.94017 36975 ft 432 kts 125°
2026-05-08 08:00 59.66801 1.04040 36977 ft 432 kts 125°
2026-05-08 08:01 59.63569 1.14040 36984 ft 431 kts 126°
2026-05-08 08:01 59.60877 1.22330 36984 ft 431 kts 126°
2026-05-08 08:02 59.57627 1.32296 36986 ft 432 kts 126°
2026-05-08 08:02 59.54362 1.42241 36992 ft 432 kts 126°
2026-05-08 08:03 59.51092 1.52169 36994 ft 431 kts 126°
2026-05-08 08:03 59.47821 1.62076 37003 ft 432 kts 126°
2026-05-08 08:04 59.44538 1.71960 37012 ft 431 kts 126°
2026-05-08 08:04 59.41257 1.81842 37012 ft 432 kts 126°
2026-05-08 08:05 59.37962 1.91706 37022 ft 432 kts 126°
2026-05-08 08:05 59.34657 2.01524 37040 ft 431 kts 126°
2026-05-08 08:06 59.31347 2.11309 37047 ft 431 kts 126°
2026-05-08 08:06 59.28034 2.21069 37055 ft 431 kts 126°
2026-05-08 08:07 59.24724 2.30831 37060 ft 431 kts 126°
2026-05-08 08:07 59.21407 2.40565 37061 ft 430 kts 126°
2026-05-08 08:08 59.18080 2.50258 37061 ft 430 kts 127°
2026-05-08 08:08 59.14742 2.59921 37063 ft 429 kts 127°
2026-05-08 08:09 59.11414 2.69550 37062 ft 428 kts 127°
2026-05-08 08:09 59.08087 2.79150 37060 ft 428 kts 127°
2026-05-08 08:10 59.04749 2.88716 37058 ft 427 kts 127°
2026-05-08 08:10 59.01405 2.98259 37061 ft 428 kts 127°
2026-05-08 08:11 58.98067 3.07749 37070 ft 429 kts 127°
2026-05-08 08:11 58.94702 3.17283 37077 ft 429 kts 127°
2026-05-08 08:12 58.91330 3.26804 37081 ft 429 kts 127°
2026-05-08 08:12 58.87951 3.36317 37100 ft 429 kts 127°
2026-05-08 08:13 58.84563 3.45810 37079 ft 429 kts 127°
2026-05-08 08:13 58.81172 3.55270 37077 ft 429 kts 127°
2026-05-08 08:14 58.77771 3.64709 37100 ft 429 kts 127°
2026-05-08 08:14 58.74356 3.74126 37108 ft 428 kts 127°
2026-05-08 08:15 58.70940 3.83522 37122 ft 428 kts 127°
2026-05-08 08:15 58.67523 3.92901 37123 ft 428 kts 127°
2026-05-08 08:16 58.64099 4.02260 37130 ft 428 kts 127°
2026-05-08 08:16 58.60670 4.11597 37137 ft 428 kts 127°
2026-05-08 08:17 58.57234 4.20918 37139 ft 428 kts 127°
2026-05-08 08:17 58.53798 4.30221 37141 ft 428 kts 127°
2026-05-08 08:18 58.50347 4.39510 37143 ft 428 kts 127°
2026-05-08 08:18 58.46888 4.48782 37149 ft 428 kts 128°
2026-05-08 08:19 58.43428 4.58027 37156 ft 428 kts 128°
2026-05-08 08:19 58.39957 4.67237 37160 ft 427 kts 128°
2026-05-08 08:20 58.36487 4.76427 37165 ft 428 kts 128°
2026-05-08 08:20 58.33010 4.85620 37188 ft 428 kts 128°
2026-05-08 08:21 58.29520 4.94797 37199 ft 428 kts 128°
2026-05-08 08:21 58.26017 5.03952 37204 ft 428 kts 128°
2026-05-08 08:22 58.22518 5.13085 37206 ft 428 kts 128°
2026-05-08 08:22 58.19011 5.22209 37204 ft 428 kts 128°
2026-05-08 08:23 58.15518 5.31244 37205 ft 428 kts 128°
2026-05-08 08:23 58.11996 5.40315 37206 ft 427 kts 128°
2026-05-08 08:24 58.08469 5.49374 37207 ft 428 kts 128°
2026-05-08 08:24 58.04942 5.58411 37210 ft 428 kts 128°
2026-05-08 08:25 58.01405 5.67437 37213 ft 428 kts 128°
2026-05-08 08:25 57.97861 5.76445 37220 ft 428 kts 128°
2026-05-08 08:26 57.94307 5.85427 37226 ft 427 kts 128°
2026-05-08 08:26 57.90752 5.94393 37230 ft 427 kts 128°
2026-05-08 08:27 57.87195 6.03340 37228 ft 427 kts 128°
2026-05-08 08:27 57.83629 6.12242 37227 ft 426 kts 128°
2026-05-08 08:28 57.80062 6.21134 37228 ft 426 kts 128°
2026-05-08 08:28 57.76488 6.30015 37233 ft 427 kts 128°
2026-05-08 08:29 57.72913 6.38866 37236 ft 427 kts 129°
2026-05-08 08:29 57.69324 6.47719 37235 ft 427 kts 129°
2026-05-08 08:30 57.65729 6.56535 37243 ft 426 kts 129°
2026-05-08 08:30 57.60335 6.69737 37246 ft 427 kts 129°
2026-05-08 08:31 57.56727 6.78523 37247 ft 427 kts 129°
2026-05-08 08:31 57.53112 6.87290 37247 ft 427 kts 129°
2026-05-08 08:32 57.49486 6.96042 37247 ft 427 kts 129°
2026-05-08 08:32 57.45876 7.04715 37247 ft 427 kts 129°
2026-05-08 08:33 57.42243 7.13429 37251 ft 427 kts 129°
2026-05-08 08:33 57.38606 7.22126 37252 ft 426 kts 129°
2026-05-08 08:34 57.34971 7.30803 37253 ft 427 kts 129°
2026-05-08 08:34 57.31319 7.39470 37256 ft 427 kts 129°
2026-05-08 08:35 57.27656 7.48120 37258 ft 427 kts 129°
2026-05-08 08:35 57.23988 7.56761 37260 ft 427 kts 129°
2026-05-08 08:36 57.20316 7.65390 37260 ft 427 kts 129°
2026-05-08 08:36 57.16637 7.73996 37261 ft 427 kts 129°
2026-05-08 08:37 57.12953 7.82579 37264 ft 427 kts 129°
2026-05-08 08:37 57.09266 7.91131 37265 ft 427 kts 129°
2026-05-08 08:38 57.05575 7.99674 37265 ft 427 kts 129°
2026-05-08 08:38 57.01884 8.08201 37263 ft 426 kts 129°
2026-05-08 08:39 56.98185 8.16710 37270 ft 427 kts 129°
2026-05-08 08:39 56.94468 8.25195 37273 ft 427 kts 130°
2026-05-08 08:40 56.90750 8.33671 37271 ft 427 kts 130°
2026-05-08 08:40 56.87030 8.42131 37273 ft 427 kts 130°
2026-05-08 08:41 56.83305 8.50568 37272 ft 427 kts 130°
2026-05-08 08:41 56.79572 8.58986 37272 ft 427 kts 130°
2026-05-08 08:42 56.75834 8.67400 37273 ft 427 kts 130°
2026-05-08 08:42 56.72085 8.75796 37274 ft 427 kts 130°
2026-05-08 08:43 56.68332 8.84177 37276 ft 427 kts 130°
2026-05-08 08:43 56.64577 8.92541 37275 ft 427 kts 130°
2026-05-08 08:44 56.60841 9.00838 37275 ft 427 kts 130°
2026-05-08 08:44 56.57077 9.09157 37275 ft 427 kts 130°
2026-05-08 08:45 56.53303 9.17468 37270 ft 427 kts 130°
2026-05-08 08:45 56.49523 9.25763 37268 ft 427 kts 130°
2026-05-08 08:46 56.45731 9.34050 37266 ft 427 kts 130°
2026-05-08 08:46 56.41940 9.42307 37264 ft 427 kts 130°
2026-05-08 08:47 56.38152 9.50538 37235 ft 427 kts 130°
2026-05-08 08:47 56.36252 9.54654 36980 ft 426 kts 130°
2026-05-08 08:47 56.34356 9.58755 36730 ft 425 kts 130°
2026-05-08 08:48 56.32466 9.62842 36486 ft 423 kts 130°
2026-05-08 08:48 56.31194 9.65582 36338 ft 421 kts 130°
2026-05-08 08:48 56.29317 9.69622 36102 ft 422 kts 130°
2026-05-08 08:48 56.27429 9.73684 35864 ft 424 kts 130°
2026-05-08 08:49 56.25535 9.77754 35652 ft 424 kts 130°
2026-05-08 08:49 56.23646 9.81804 35427 ft 422 kts 130°
2026-05-08 08:49 56.21764 9.85829 35203 ft 420 kts 130°
2026-05-08 08:49 56.19891 9.89829 34978 ft 417 kts 130°
2026-05-08 08:50 56.18052 9.93748 34754 ft 415 kts 130°
2026-05-08 08:50 56.16199 9.97696 34530 ft 412 kts 130°
2026-05-08 08:50 56.14354 10.01613 34299 ft 410 kts 130°
2026-05-08 08:50 56.12519 10.05499 34072 ft 406 kts 130°
2026-05-08 08:51 56.10698 10.09347 33398 ft 405 kts 130°
2026-05-08 08:51 56.08859 10.13230 32121 ft 412 kts 130°
2026-05-08 08:51 56.07005 10.17144 31085 ft 411 kts 130°
2026-05-08 08:51 56.05164 10.21031 30138 ft 407 kts 130°
2026-05-08 08:52 56.03352 10.24855 29488 ft 398 kts 130°
2026-05-08 08:52 56.01569 10.28606 29109 ft 394 kts 130°
2026-05-08 08:52 55.99800 10.32314 28720 ft 390 kts 130°
2026-05-08 08:52 55.98047 10.35976 28333 ft 387 kts 130°
2026-05-08 08:53 55.96304 10.39618 27946 ft 384 kts 130°
2026-05-08 08:53 55.94572 10.43238 27542 ft 383 kts 130°
2026-05-08 08:53 55.92846 10.46840 27147 ft 381 kts 130°
2026-05-08 08:53 55.91172 10.50496 26721 ft 380 kts 124°
2026-05-08 08:54 55.89888 10.54591 26308 ft 379 kts 112°
2026-05-08 08:54 55.89106 10.59059 25887 ft 378 kts 102°
2026-05-08 08:54 55.88564 10.63622 25455 ft 377 kts 102°
2026-05-08 08:54 55.88017 10.68175 25021 ft 375 kts 102°
2026-05-08 08:55 55.87465 10.72714 24565 ft 374 kts 102°
2026-05-08 08:55 55.86936 10.77049 24150 ft 373 kts 102°
2026-05-08 08:55 55.86383 10.81553 23707 ft 372 kts 102°
2026-05-08 08:55 55.85828 10.86038 23245 ft 370 kts 103°
2026-05-08 08:56 55.85443 10.90535 22792 ft 363 kts 91°
2026-05-08 08:56 55.85439 10.94950 22345 ft 351 kts 90°
2026-05-08 08:56 55.85443 10.99260 21891 ft 346 kts 90°
2026-05-08 08:56 55.85444 11.03528 21134 ft 346 kts 90°
2026-05-08 08:57 55.85439 11.07849 20305 ft 346 kts 90°
2026-05-08 08:57 55.85433 11.11991 20095 ft 325 kts 90°
2026-05-08 08:57 55.85427 11.15930 19743 ft 313 kts 90°
2026-05-08 08:57 55.85423 11.19738 19372 ft 303 kts 90°
2026-05-08 08:58 55.85418 11.23480 19014 ft 303 kts 90°
2026-05-08 08:58 55.85411 11.27229 18654 ft 304 kts 90°
2026-05-08 08:58 55.85406 11.30996 18272 ft 304 kts 90°
2026-05-08 08:58 55.85401 11.34764 17911 ft 304 kts 90°
2026-05-08 08:59 55.85391 11.38529 17540 ft 304 kts 90°
2026-05-08 08:59 55.85381 11.42297 17173 ft 304 kts 90°
2026-05-08 08:59 55.85368 11.46064 16805 ft 304 kts 90°
2026-05-08 08:59 55.85353 11.49826 16434 ft 304 kts 90°
2026-05-08 09:00 55.85337 11.53596 16063 ft 304 kts 90°
2026-05-08 09:00 55.85321 11.57349 15704 ft 303 kts 90°
2026-05-08 09:00 55.85305 11.61106 15340 ft 303 kts 90°
2026-05-08 09:00 55.85289 11.64849 14974 ft 303 kts 90°
2026-05-08 09:01 55.85270 11.68590 14607 ft 302 kts 90°
2026-05-08 09:01 55.85250 11.72330 14244 ft 302 kts 91°
2026-05-08 09:01 55.85229 11.76064 13877 ft 301 kts 91°
2026-05-08 09:01 55.85208 11.79778 13518 ft 300 kts 91°
2026-05-08 09:02 55.85184 11.83487 13145 ft 299 kts 91°
2026-05-08 09:02 55.85159 11.87177 12775 ft 298 kts 91°
2026-05-08 09:02 55.85135 11.90860 12416 ft 297 kts 91°
2026-05-08 09:02 55.85108 11.94532 12053 ft 296 kts 91°
2026-05-08 09:03 55.85080 11.98184 11692 ft 294 kts 91°
2026-05-08 09:03 55.85050 12.01825 11328 ft 294 kts 91°
2026-05-08 09:03 55.85020 12.05447 10972 ft 292 kts 91°
2026-05-08 09:03 55.84990 12.09062 10609 ft 292 kts 91°
2026-05-08 09:04 55.84960 12.12664 10242 ft 289 kts 91°
2026-05-08 09:04 55.84927 12.16117 9906 ft 278 kts 91°
2026-05-08 09:04 55.84897 12.19546 9567 ft 277 kts 90°
2026-05-08 09:04 55.84865 12.23033 9025 ft 283 kts 91°
2026-05-08 09:05 55.84832 12.26463 8538 ft 278 kts 91°
2026-05-08 09:05 55.84798 12.29877 8017 ft 276 kts 91°
2026-05-08 09:05 55.84763 12.33273 7734 ft 273 kts 91°
2026-05-08 09:05 55.84725 12.36632 7372 ft 269 kts 91°
2026-05-08 09:06 55.84687 12.39952 6780 ft 269 kts 91°
2026-05-08 09:06 55.84652 12.43278 6447 ft 268 kts 91°
2026-05-08 09:06 55.84616 12.46573 6154 ft 266 kts 91°
2026-05-08 09:06 55.84578 12.49865 5852 ft 265 kts 91°
2026-05-08 09:07 55.84540 12.53130 5586 ft 263 kts 91°
2026-05-08 09:07 55.84500 12.56372 5304 ft 260 kts 91°
2026-05-08 09:07 55.84454 12.59578 4996 ft 259 kts 91°
2026-05-08 09:07 55.84410 12.62773 4670 ft 258 kts 91°
2026-05-08 09:08 55.84368 12.65955 4346 ft 257 kts 91°
2026-05-08 09:08 55.84326 12.69126 4037 ft 256 kts 91°
2026-05-08 09:08 55.84281 12.72278 3727 ft 254 kts 91°
2026-05-08 09:08 55.84235 12.75414 3410 ft 253 kts 91°
2026-05-08 09:09 55.84189 12.78540 3101 ft 252 kts 91°
2026-05-08 09:09 55.83968 12.81600 2991 ft 250 kts 111°
2026-05-08 09:09 55.83004 12.84167 3004 ft 252 kts 132°
2026-05-08 09:09 55.81815 12.86279 2996 ft 229 kts 135°
2026-05-08 09:10 55.80721 12.88133 2995 ft 209 kts 135°
2026-05-08 09:10 55.79539 12.89584 2995 ft 208 kts 162°
2026-05-08 09:10 55.78105 12.89570 3005 ft 212 kts 203°
2026-05-08 09:10 55.76947 12.88036 3027 ft 202 kts 222°
2026-05-08 09:11 55.75958 12.86424 3029 ft 185 kts 221°
2026-05-08 09:11 55.75038 12.84968 3006 ft 169 kts 219°
2026-05-08 09:11 55.74112 12.83859 3013 ft 155 kts 208°
2026-05-08 09:11 55.73175 12.82961 3018 ft 151 kts 206°
2026-05-08 09:12 55.72240 12.82086 2911 ft 154 kts 206°
2026-05-08 09:12 55.71268 12.81240 2599 ft 157 kts 201°
2026-05-08 09:12 55.70273 12.80519 2338 ft 151 kts 208°
2026-05-08 09:12 55.69419 12.79469 2057 ft 147 kts 213°
2026-05-08 09:13 55.68593 12.78456 2000 ft 144 kts 215°
2026-05-08 09:13 55.67766 12.77447 1963 ft 143 kts 208°
2026-05-08 09:13 55.66829 12.76896 2038 ft 144 kts 186°
2026-05-08 09:13 55.65843 12.76689 2004 ft 142 kts 184°
2026-05-08 09:14 55.64875 12.76498 2127 ft 137 kts 185°
2026-05-08 09:14 55.63917 12.76495 2497 ft 144 kts 158°
2026-05-08 09:14 55.63261 12.77712 2503 ft 140 kts 101°
2026-05-08 09:14 55.63369 12.79377 2731 ft 139 kts 68°
2026-05-08 09:15 55.63883 12.80948 2929 ft 159 kts 60°
2026-05-08 09:15 55.64570 12.82725 3041 ft 190 kts 55°
2026-05-08 09:15 55.65388 12.84682 3057 ft 201 kts 55°
2026-05-08 09:15 55.66203 12.86704 3097 ft 202 kts 56°
2026-05-08 09:16 55.67017 12.88733 3189 ft 203 kts 56°
2026-05-08 09:16 55.67839 12.90772 3205 ft 203 kts 55°
2026-05-08 09:16 55.68670 12.92795 3123 ft 203 kts 54°
2026-05-08 09:16 55.69503 12.94793 3056 ft 202 kts 54°
2026-05-08 09:17 55.70342 12.96801 3022 ft 202 kts 55°
2026-05-08 09:17 55.71155 12.98825 2968 ft 201 kts 56°
2026-05-08 09:17 55.71983 13.00827 2936 ft 201 kts 54°
2026-05-08 09:17 55.72838 13.02795 2988 ft 202 kts 49°
2026-05-08 09:18 55.73918 13.04359 2985 ft 204 kts 25°
2026-05-08 09:18 55.75317 13.04612 3011 ft 207 kts 348°
2026-05-08 09:18 55.76555 13.03323 3028 ft 212 kts 314°
2026-05-08 09:18 55.77466 13.01268 3025 ft 212 kts 306°
2026-05-08 09:19 55.78085 12.98909 3001 ft 213 kts 277°
2026-05-08 09:19 55.77971 12.96301 3014 ft 213 kts 258°
2026-05-08 09:19 55.77639 12.93729 3028 ft 213 kts 256°
2026-05-08 09:19 55.77299 12.91286 3030 ft 194 kts 256°
2026-05-08 09:20 55.76890 12.89123 3005 ft 176 kts 238°
2026-05-08 09:20 55.76085 12.87612 2890 ft 166 kts 214°
2026-05-08 09:20 55.75187 12.86418 2787 ft 155 kts 215°
2026-05-08 09:20 55.74344 12.85292 2763 ft 150 kts 215°
2026-05-08 09:21 55.73547 12.84134 2763 ft 147 kts 221°
2026-05-08 09:21 55.72818 12.82879 2651 ft 145 kts 221°
2026-05-08 09:22 55.68444 12.75938 1591 ft 138 kts 219°
2026-05-08 09:23 55.67725 12.74817 1410 ft 137 kts 220°
2026-05-08 09:23 55.67011 12.73704 1215 ft 136 kts 219°
2026-05-08 09:23 55.66299 12.72597 1033 ft 136 kts 219°
2026-05-08 09:23 55.65590 12.71497 846 ft 135 kts 220°
2026-05-08 09:24 55.64883 12.70398 668 ft 135 kts 220°
2026-05-08 09:24 55.64177 12.69301 486 ft 135 kts 220°
2026-05-08 09:24 55.63469 12.68202 308 ft 135 kts 220°
2026-05-08 09:24 55.62770 12.67104 143 ft 135 kts 219°
2026-05-08 09:25 55.62086 12.66041 22 ft 121 kts 217°
2026-05-08 09:25 55.61562 12.65246 17 ft 75 kts 221°
2026-05-08 09:25 55.61303 12.64807 19 ft 31 kts 247°
2026-05-08 09:25 55.61262 12.64632 18 ft 2 kts 244°
2026-05-08 09:26 55.61235 12.64524 20 ft 15 kts 250°
2026-05-08 09:26 55.61201 12.64350 18 ft 13 kts 252°
2026-05-08 09:26 55.61185 12.64176 17 ft 16 kts 285°
2026-05-08 09:26 55.61275 12.64108 18 ft 17 kts 21°
2026-05-08 09:27 55.61380 12.64232 19 ft 20 kts 34°
2026-05-08 09:27 55.61477 12.64341 18 ft 16 kts 32°
2026-05-08 09:27 55.61583 12.64461 17 ft 20 kts 33°
2026-05-08 09:27 55.61682 12.64574 18 ft 16 kts 33°
2026-05-08 09:28 55.61782 12.64690 17 ft 19 kts 33°
2026-05-08 09:28 55.61890 12.64814 19 ft 20 kts 33°
2026-05-08 09:28 55.62003 12.64944 19 ft 21 kts 33°
2026-05-08 09:28 55.62119 12.65079 19 ft 21 kts 33°
2026-05-08 09:29 55.62194 12.65165 19 ft 9 kts 33°
2026-05-08 09:29 55.62252 12.65136 17 ft 11 kts 304°
2026-05-08 09:29 55.62300 12.65004 18 ft 14 kts 303°
2026-05-08 09:29 55.62358 12.64848 17 ft 16 kts 304°
2026-05-08 09:30 55.62422 12.64674 19 ft 18 kts 303°
2026-05-08 09:30 55.62492 12.64486 19 ft 19 kts 302°
2026-05-08 09:30 55.62543 12.64349 18 ft 9 kts 303°
2026-05-08 09:30 55.62574 12.64272 17 ft 7 kts 319°
2026-05-08 09:31 55.62618 12.64276 19 ft 7 kts 28°
2026-05-08 09:31 55.62667 12.64316 17 ft 8 kts 20°
2026-05-08 09:31 55.62704 12.64342 17 ft 9 kts 24°
2026-05-08 09:31 55.62743 12.64377 18 ft 4 kts 25°
2026-05-08 09:32 55.62760 12.64417 17 ft 5 kts 86°
2026-05-08 09:32 55.62759 12.64428 17 ft 1 kts 93°
2026-05-08 09:32 55.62758 12.64444 17 ft 2 kts 98°
2026-05-08 09:32 55.62756 12.64465 17 ft 1 kts 100°
2026-05-08 09:33 55.62755 12.64475 17 ft 0 kts 101°
2026-05-08 09:33 55.62755 12.64476 17 ft 0 kts 101°